Powrót do katalogu

ONEWEB-0095

AktywnyŁącznośćPO
NORAD 45436·PAYLOAD·🇬🇧 United Kingdom

Wystrzelony Mar 21, 2020 z Baikonur Cosmodrome

Loading…

Następne Przeloty (najbliższe 24 godziny)

TLE

ŚwieżeSource: CelesTrak SupGP

Epoka: Sep 14, 2026, 11:45 UTC

1 45436C 20020N   26257.49008516 -.00003117  00000+0 -88059-2 0  2573
2 45436  87.8958   3.3148 0001462 124.9093 345.9599 13.11415213    16

Śledź ONEWEB-0095 w czasie rzeczywistym z AllMySat

Download on the App Store